,,Stat5,,Stat1,,Stat2,,Stat3,,Stat4,,Wind1,,Wind1,
time,status,PA1M_AVG,status,PR1M_SUM,status,RH1M_AVG,status,SR1M_AVG,status,TA1M_AVG,status,W1dAve1m,status,W1sAve1m,
2001-09-20, 00:00:01,VALID,918.508,VALID,0,VALID,95.4594,VALID,-0.101885,VALID,20.5325,VALID,15,VALID,0.626172,
2001-09-20, 00:01:00,VALID,918.504,VALID,0,VALID,95.4263,VALID,0,VALID,20.528,VALID,16,VALID,0.83941,
2001-09-20, 00:02:00,VALID,918.513,VALID,0,VALID,95.4021,VALID,0.0339617,VALID,20.5177,VALID,21,VALID,0.858594,
2001-09-20, 00:03:00,VALID,918.517,VALID,0,VALID,95.4072,VALID,0.0169808,VALID,20.5048,VALID,19,VALID,0.814955,
2001-09-20, 00:04:00,VALID,918.519,VALID,0,VALID,95.4721,VALID,0.0339617,VALID,20.5048,VALID,18,VALID,0.552885,
2001-09-20, 00:05:00,VALID,918.521,VALID,0,VALID,95.5217,VALID,0.0509425,VALID,20.4978,VALID,18,VALID,0.507568,
2001-09-20, 00:06:00,VALID,918.522,VALID,0,VALID,95.6386,VALID,0.0339617,VALID,20.5078,VALID,20,VALID,0.467272,
2001-09-20, 00:07:00,VALID,918.524,VALID,0,VALID,95.6488,VALID,0,VALID,20.5175,VALID,21,VALID,0.508765,
2001-09-20, 00:08:00,VALID,918.517,VALID,0,VALID,95.6692,VALID,0.0339617,VALID,20.5205,VALID,24,VALID,0.615184,
2001-09-20, 00:09:00,VALID,918.519,VALID,0,VALID,95.6565,VALID,0.0509425,VALID,20.5175,VALID,26,VALID,0.466546,
2001-09-20, 00:10:00,VALID,918.502,VALID,0,VALID,95.7124,VALID,0.0679233,VALID,20.5205,VALID,26,VALID,0.377455,
2001-09-20, 00:11:00,VALID,918.482,VALID,0,VALID,95.6183,VALID,0.0169808,VALID,20.514,VALID,21,VALID,0.616797,
2001-09-20, 00:12:00,VALID,918.475,VALID,0,VALID,95.1809,VALID,0.0509425,VALID,20.4628,VALID,13,VALID,0.992569,
2001-09-20, 00:13:00,VALID,918.475,VALID,0,VALID,95.2228,VALID,0.0339617,VALID,20.4303,VALID,15,VALID,1.01113,
2001-09-20, 00:14:00,VALID,918.468,VALID,0,VALID,95.3678,VALID,0.0339617,VALID,20.3982,VALID,15,VALID,0.7519,
2001-09-20, 00:15:00,VALID,918.45,VALID,0,VALID,95.57,VALID,0.0509425,VALID,20.3759,VALID,20,VALID,0.835938,
2001-09-20, 00:16:00,VALID,918.423,VALID,0,VALID,95.7912,VALID,0.0339617,VALID,20.3686,VALID,20,VALID,0.751116,
2001-09-20, 00:17:00,VALID,918.399,VALID,0,VALID,95.7633,VALID,0.0169808,VALID,20.3527,VALID,19,VALID,0.89527,
2001-09-20, 00:18:00,VALID,918.397,VALID,0,VALID,95.879,VALID,0.0169808,VALID,20.3242,VALID,22,VALID,0.567779,
2001-09-20, 00:19:00,VALID,918.381,VALID,0,VALID,95.9057,VALID,0,VALID,20.3174,VALID,19,VALID,0.985777,
2001-09-20, 00:20:00,VALID,918.378,VALID,0,VALID,95.8777,VALID,0,VALID,20.272,VALID,16,VALID,0.707332,
2001-09-20, 00:21:00,VALID,918.347,VALID,0,VALID,96.0519,VALID,0.0169808,VALID,20.266,VALID,2,VALID,0.52567,
2001-09-20, 00:22:00,VALID,918.32,VALID,0,VALID,96.1791,VALID,0.0339617,VALID,20.263,VALID,12,VALID,0.563528,
2001-09-20, 00:23:00,VALID,918.301,VALID,0,VALID,96.2058,VALID,0.0169808,VALID,20.2722,VALID,14,VALID,0.81851,
2001-09-20, 00:24:00,VALID,918.265,VALID,0,VALID,96.0913,VALID,0.0169808,VALID,20.2658,VALID,6,VALID,0.933398,
2001-09-20, 00:25:00,VALID,918.223,VALID,0,VALID,95.9756,VALID,0,VALID,20.2494,VALID,360,VALID,0.870988,
2001-09-20, 00:26:00,VALID,918.202,VALID,0,VALID,95.9896,VALID,0.0339617,VALID,20.2205,VALID,357,VALID,0.739654,
2001-09-20, 00:27:00,VALID,918.196,VALID,0,VALID,96.1015,VALID,0.0339617,VALID,20.1979,VALID,1,VALID,0.725043,
2001-09-20, 00:28:00,VALID,918.194,VALID,0,VALID,96.1486,VALID,0.0169808,VALID,20.1855,VALID,19,VALID,0.882031,
2001-09-20, 00:29:00,VALID,918.176,VALID,0,VALID,96.2376,VALID,0.0339617,VALID,20.1659,VALID,10,VALID,0.845117,
2001-09-20, 00:30:00,VALID,918.155,VALID,0,VALID,96.1689,VALID,0.0339617,VALID,20.1559,VALID,10,VALID,0.949119,
2001-09-20, 00:31:00,VALID,918.13,VALID,0,VALID,96.1994,VALID,-0.0339617,VALID,20.1214,VALID,3,VALID,0.973958,
2001-09-20, 00:32:00,VALID,918.116,VALID,0,VALID,96.3215,VALID,-0.0849042,VALID,20.1092,VALID,333,VALID,1.1971,
2001-09-20, 00:33:00,VALID,918.117,VALID,0,VALID,96.4983,VALID,-0.101885,VALID,20.0995,VALID,355,VALID,0.686899,
2001-09-20, 00:34:00,VALID,918.122,VALID,0,VALID,96.5339,VALID,-0.0849042,VALID,20.0834,VALID,356,VALID,0.91838,
2001-09-20, 00:35:00,VALID,918.107,VALID,0,VALID,96.5618,VALID,-0.101885,VALID,20.0737,VALID,360,VALID,1.08676,
2001-09-20, 00:36:00,VALID,918.082,VALID,0,VALID,96.5974,VALID,-0.101885,VALID,20.0613,VALID,347,VALID,0.94184,
2001-09-20, 00:37:00,VALID,918.064,VALID,0,VALID,96.6788,VALID,-0.101885,VALID,20.0648,VALID,331,VALID,0.749566,
2001-09-20, 00:38:00,VALID,918.05,VALID,0,VALID,96.6903,VALID,-0.101885,VALID,20.0551,VALID,343,VALID,0.785846,
2001-09-20, 00:39:00,VALID,918.039,VALID,0,VALID,96.6826,VALID,-0.0849042,VALID,20.0481,VALID,7,VALID,0.724029,
2001-09-20, 00:40:00,VALID,918.04,VALID,0,VALID,96.7844,VALID,-0.118866,VALID,20.061,VALID,22,VALID,0.619191,
2001-09-20, 00:41:00,VALID,918.013,VALID,0,VALID,96.8518,VALID,-0.0849042,VALID,20.0871,VALID,346,VALID,0.178686,
2001-09-20, 00:42:00,VALID,917.997,VALID,0,VALID,96.8174,VALID,-0.0509425,VALID,20.0866,VALID,310,VALID,0.244391,
2001-09-20, 00:43:00,VALID,917.984,VALID,0,VALID,96.8925,VALID,-0.0849042,VALID,20.0926,VALID,309,VALID,0.0455357,
2001-09-20, 00:44:00,VALID,917.989,VALID,0,VALID,96.8937,VALID,-0.101885,VALID,20.1256,VALID,347,VALID,0.329688,
2001-09-20, 00:45:00,VALID,917.99,VALID,0,VALID,96.8327,VALID,-0.0849042,VALID,20.1256,VALID,28,VALID,0.273828,
2001-09-20, 00:46:00,VALID,917.989,VALID,0,VALID,96.7653,VALID,-0.101885,VALID,20.1515,VALID,28,VALID,0.0667969,
2001-09-20, 00:47:00,VALID,917.974,VALID,0,VALID,96.6458,VALID,-0.101885,VALID,20.1607,VALID,25,VALID,0.272382,
2001-09-20, 00:48:00,VALID,917.964,VALID,0,VALID,96.5339,VALID,-0.0849042,VALID,20.1803,VALID,21,VALID,0.178819,
2001-09-20, 00:49:00,VALID,917.954,VALID,0,VALID,96.4092,VALID,-0.0849042,VALID,20.1932,VALID,21,VALID,0.0223214,
2001-09-20, 00:50:00,VALID,917.95,VALID,0,VALID,96.2668,VALID,-0.101885,VALID,20.1967,VALID,336,VALID,0.0903716,
2001-09-20, 00:51:00,VALID,917.925,VALID,0,VALID,96.0239,VALID,-0.101885,VALID,20.1739,VALID,294,VALID,0.0073902,
2001-09-20, 00:52:00,VALID,917.911,VALID,0,VALID,96.0023,VALID,-0.101885,VALID,20.1835,VALID,320,VALID,0.0570913,
2001-09-20, 00:53:00,VALID,917.911,VALID,0,VALID,95.9553,VALID,-0.101885,VALID,20.2131,VALID,18,VALID,0.405849,
2001-09-20, 00:54:00,VALID,917.897,VALID,0,VALID,95.8459,VALID,-0.0679233,VALID,20.2129,VALID,18,VALID,0.191295,
2001-09-20, 00:55:00,VALID,917.886,VALID,0,VALID,95.8447,VALID,-0.101885,VALID,20.2159,VALID,18,VALID,0.186472,
2001-09-20, 00:56:00,VALID,917.867,VALID,0,VALID,95.8459,VALID,-0.0849042,VALID,20.2255,VALID,19,VALID,0.352364,
2001-09-20, 00:57:00,VALID,917.851,VALID,0,VALID,95.8269,VALID,-0.101885,VALID,20.2489,VALID,20,VALID,0.459766,
2001-09-20, 00:58:00,VALID,917.844,VALID,0,VALID,95.7633,VALID,-0.101885,VALID,20.2613,VALID,16,VALID,0.54772,
2001-09-20, 00:59:00,VALID,917.845,VALID,0,VALID,95.5433,VALID,-0.101885,VALID,20.235,VALID,3,VALID,0.678421,
2001-09-20, 01:00:00,VALID,917.823,VALID,0,VALID,95.3996,VALID,-0.0849042,VALID,20.2231,VALID,8,VALID,0.949002,
2001-09-20, 01:01:00,VALID,917.81,VALID,0,VALID,95.4568,VALID,-0.0339617,VALID,20.2027,VALID,13,VALID,0.843359,
2001-09-20, 01:02:00,VALID,917.814,VALID,0,VALID,95.4416,VALID,-0.0169808,VALID,20.1898,VALID,10,VALID,0.983594,
2001-09-20, 01:03:00,VALID,917.802,VALID,0,VALID,95.5153,VALID,0,VALID,20.1701,VALID,17,VALID,1.17969,
2001-09-20, 01:04:00,VALID,917.793,VALID,0,VALID,95.6526,VALID,0,VALID,20.1607,VALID,15,VALID,0.617188,
2001-09-20, 01:05:00,VALID,917.805,VALID,0,VALID,95.6666,VALID,0,VALID,20.147,VALID,337,VALID,0.503795,
2001-09-20, 01:06:00,VALID,917.797,VALID,0,VALID,95.4911,VALID,0,VALID,20.1346,VALID,327,VALID,0.289263,
2001-09-20, 01:07:00,VALID,917.794,VALID,0,VALID,95.5433,VALID,0,VALID,20.1346,VALID,336,VALID,0.0805921,
2001-09-20, 01:08:00,VALID,917.77,VALID,0,VALID,95.6959,VALID,-0.0169808,VALID,20.1505,VALID,20,VALID,0.454975,
2001-09-20, 01:09:00,VALID,917.759,VALID,0,VALID,95.7073,VALID,0,VALID,20.1694,VALID,7,VALID,0.660156,
2001-09-20, 01:10:00,VALID,917.739,VALID,0,VALID,95.6654,VALID,0.0169808,VALID,20.1793,VALID,355,VALID,0.176866,
2001-09-20, 01:11:00,VALID,917.719,VALID,0,VALID,95.5916,VALID,0,VALID,20.2019,VALID,351,VALID,0.0951287,
2001-09-20, 01:12:00,VALID,917.709,VALID,0,VALID,95.3309,VALID,0,VALID,20.1788,VALID,350,VALID,0.0872044,
2001-09-20, 01:13:00,VALID,917.706,VALID,0,VALID,95.2915,VALID,-0.0169808,VALID,20.179,VALID,352,VALID,0.0120192,
2001-09-20, 01:14:00,VALID,917.683,VALID,0,VALID,95.3258,VALID,0,VALID,20.2057,VALID,350,VALID,0.0484776,
2001-09-20, 01:15:00,VALID,917.667,VALID,0,VALID,95.3093,VALID,0,VALID,20.2183,VALID,273,VALID,0.217949,
2001-09-20, 01:16:00,VALID,917.642,VALID,0,VALID,95.0448,VALID,0,VALID,20.2051,VALID,190,VALID,0.14375,
2001-09-20, 01:17:00,VALID,917.621,VALID,0,VALID,95.0753,VALID,0,VALID,20.2054,VALID,192,VALID,0.0121094,
2001-09-20, 01:18:00,VALID,917.622,VALID,0,VALID,95.1084,VALID,0.0169808,VALID,20.2176,VALID,212,VALID,0,
2001-09-20, 01:19:00,VALID,917.607,VALID,0,VALID,95.027,VALID,0,VALID,20.2049,VALID,231,VALID,0,
2001-09-20, 01:20:00,VALID,917.615,VALID,0,VALID,95.0295,VALID,0.0339617,VALID,20.1788,VALID,230,VALID,0,
2001-09-20, 01:21:00,VALID,917.605,VALID,0,VALID,95.2902,VALID,0,VALID,20.192,VALID,234,VALID,0,
2001-09-20, 01:22:00,VALID,917.612,VALID,0,VALID,95.4021,VALID,0,VALID,20.2049,VALID,235,VALID,0,
2001-09-20, 01:23:00,VALID,917.592,VALID,0,VALID,95.3767,VALID,0.0169808,VALID,20.186,VALID,262,VALID,0,
2001-09-20, 01:24:00,VALID,917.581,VALID,0,VALID,95.5,VALID,0,VALID,20.1989,VALID,10,VALID,0,
2001-09-20, 01:25:00,VALID,917.567,VALID,0,VALID,95.4797,VALID,0,VALID,20.1954,VALID,10,VALID,0,
2001-09-20, 01:26:00,VALID,917.568,VALID,0,VALID,95.5102,VALID,0.0169808,VALID,20.2046,VALID,16,VALID,0,
2001-09-20, 01:27:00,VALID,917.569,VALID,0,VALID,95.4339,VALID,0.0339617,VALID,20.221,VALID,18,VALID,0,
2001-09-20, 01:28:00,VALID,917.573,VALID,0,VALID,95.3297,VALID,0.0169808,VALID,20.2148,VALID,21,VALID,0,
2001-09-20, 01:29:00,VALID,917.589,VALID,0,VALID,95.3805,VALID,0,VALID,20.2176,VALID,21,VALID,0,
2001-09-20, 01:30:00,VALID,917.584,VALID,0,VALID,95.3284,VALID,0,VALID,20.228,VALID,6,VALID,0,
2001-09-20, 01:31:00,VALID,917.577,VALID,0,VALID,95.4683,VALID,-0.0169808,VALID,20.2081,VALID,18,VALID,0.348184,
2001-09-20, 01:32:00,VALID,917.555,VALID,0,VALID,95.481,VALID,0,VALID,20.1954,VALID,13,VALID,0.425253,
2001-09-20, 01:33:00,VALID,917.529,VALID,0,VALID,95.5814,VALID,0.0339617,VALID,20.1925,VALID,4,VALID,0.334201,
2001-09-20, 01:34:00,VALID,917.498,VALID,0,VALID,95.6298,VALID,0,VALID,20.1793,VALID,25,VALID,0.361133,
2001-09-20, 01:35:00,VALID,917.474,VALID,0,VALID,95.5649,VALID,0.0169808,VALID,20.1696,VALID,28,VALID,0.824414,
2001-09-20, 01:36:00,VALID,917.461,VALID,0,VALID,95.4746,VALID,0.0169808,VALID,20.1529,VALID,16,VALID,0.833534,
2001-09-20, 01:37:00,VALID,917.471,VALID,0,VALID,95.5217,VALID,0,VALID,20.1656,VALID,10,VALID,0.452925,
2001-09-20, 01:38:00,VALID,917.475,VALID,0,VALID,95.4644,VALID,0.0169808,VALID,20.179,VALID,10,VALID,0.21875,
2001-09-20, 01:39:00,VALID,917.469,VALID,0,VALID,95.4988,VALID,0.0169808,VALID,20.1659,VALID,18,VALID,0.432893,
2001-09-20, 01:40:00,VALID,917.475,VALID,0,VALID,95.5166,VALID,0.0169808,VALID,20.1656,VALID,21,VALID,0.0639391,
2001-09-20, 01:41:00,VALID,917.485,VALID,0,VALID,95.6145,VALID,0.0339617,VALID,20.1927,VALID,21,VALID,0,
2001-09-20, 01:42:00,VALID,917.492,VALID,0,VALID,95.5471,VALID,-0.0169808,VALID,20.1728,VALID,354,VALID,0.0477431,
2001-09-20, 01:43:00,VALID,917.505,VALID,0,VALID,95.5585,VALID,0.0339617,VALID,20.1629,VALID,187,VALID,0.0690104,
2001-09-20, 01:44:00,VALID,917.509,VALID,0,VALID,95.5306,VALID,0.0339617,VALID,20.1567,VALID,187,VALID,0,
2001-09-20, 01:45:00,VALID,917.529,VALID,0,VALID,95.5255,VALID,0.0169808,VALID,20.1435,VALID,227,VALID,0.00126689,
2001-09-20, 01:46:00,VALID,917.522,VALID,0,VALID,95.5051,VALID,0,VALID,20.1241,VALID,242,VALID,0,
2001-09-20, 01:47:00,VALID,917.512,VALID,0,VALID,95.5891,VALID,0,VALID,20.1214,VALID,242,VALID,0.00340545,
2001-09-20, 01:48:00,VALID,917.501,VALID,0,VALID,95.631,VALID,0,VALID,20.1149,VALID,243,VALID,0,
2001-09-20, 01:49:00,VALID,917.489,VALID,0,VALID,95.6921,VALID,0.0169808,VALID,20.1214,VALID,260,VALID,0.0272321,
2001-09-20, 01:50:00,VALID,917.473,VALID,0,VALID,95.687,VALID,0,VALID,20.1246,VALID,298,VALID,0.0230469,
2001-09-20, 01:51:00,VALID,917.471,VALID,0,VALID,95.7226,VALID,-0.0169808,VALID,20.1313,VALID,298,VALID,0,
2001-09-20, 01:52:00,VALID,917.483,VALID,0,VALID,95.8167,VALID,0,VALID,20.1346,VALID,298,VALID,0,
2001-09-20, 01:53:00,VALID,917.475,VALID,0,VALID,95.7976,VALID,0.0339617,VALID,20.1405,VALID,298,VALID,0,
2001-09-20, 01:54:00,VALID,917.478,VALID,0,VALID,95.701,VALID,0,VALID,20.1376,VALID,298,VALID,0,
2001-09-20, 01:55:00,VALID,917.462,VALID,0,VALID,95.7315,VALID,-0.0169808,VALID,20.1313,VALID,298,VALID,0,
2001-09-20, 01:56:00,VALID,917.455,VALID,0,VALID,95.7938,VALID,-0.0169808,VALID,20.1381,VALID,298,VALID,0,
2001-09-20, 01:57:00,VALID,917.434,VALID,0,VALID,95.8256,VALID,0,VALID,20.1343,VALID,298,VALID,0,
2001-09-20, 01:58:00,VALID,917.43,VALID,0,VALID,95.8904,VALID,0,VALID,20.1637,VALID,298,VALID,0,
2001-09-20, 01:59:00,VALID,917.427,VALID,0,VALID,95.8281,VALID,-0.0169808,VALID,20.1766,VALID,298,VALID,0,
2001-09-20, 02:00:00,VALID,917.428,VALID,0,VALID,95.7378,VALID,0,VALID,20.183,VALID,298,VALID,0,
2001-09-20, 02:01:00,VALID,917.43,VALID,0,VALID,95.5013,VALID,0,VALID,20.1435,VALID,298,VALID,0.0154194,
2001-09-20, 02:02:00,VALID,917.434,VALID,0,VALID,95.4301,VALID,0,VALID,20.1542,VALID,298,VALID,0,
2001-09-20, 02:03:00,VALID,917.429,VALID,0,VALID,95.3475,VALID,0,VALID,20.1346,VALID,298,VALID,0,
2001-09-20, 02:04:00,VALID,917.429,VALID,0,VALID,95.2902,VALID,0,VALID,20.1246,VALID,298,VALID,0,
2001-09-20, 02:05:00,VALID,917.405,VALID,0,VALID,95.1707,VALID,0,VALID,20.1149,VALID,298,VALID,0,
2001-09-20, 02:06:00,VALID,917.387,VALID,0,VALID,95.0982,VALID,-0.0169808,VALID,20.0859,VALID,298,VALID,0,
2001-09-20, 02:07:00,VALID,917.364,VALID,0,VALID,94.9863,VALID,-0.0169808,VALID,20.0667,VALID,244,VALID,0.324219,
2001-09-20, 02:08:00,VALID,917.353,VALID,0,VALID,94.9787,VALID,0,VALID,20.0404,VALID,268,VALID,0.0998047,
2001-09-20, 02:09:00,VALID,917.338,VALID,0,VALID,95.1262,VALID,0,VALID,20.028,VALID,307,VALID,0.13722,
2001-09-20, 02:10:00,VALID,917.316,VALID,0,VALID,95.4517,VALID,-0.0169808,VALID,20.0404,VALID,16,VALID,0.170673,
2001-09-20, 02:11:00,VALID,917.307,VALID,0,VALID,95.5636,VALID,-0.0169808,VALID,20.0633,VALID,16,VALID,0.0321429,
2001-09-20, 02:12:00,VALID,917.294,VALID,0,VALID,95.6844,VALID,0,VALID,20.0826,VALID,16,VALID,0,
2001-09-20, 02:13:00,VALID,917.275,VALID,0,VALID,95.6272,VALID,0,VALID,20.102,VALID,16,VALID,0.0123355,
2001-09-20, 02:14:00,VALID,917.277,VALID,0,VALID,95.5751,VALID,0,VALID,20.0958,VALID,16,VALID,0.0454359,
2001-09-20, 02:15:00,VALID,917.258,VALID,0,VALID,95.5763,VALID,0,VALID,20.0923,VALID,16,VALID,0.0607639,
2001-09-20, 02:16:00,VALID,917.234,VALID,0,VALID,95.5687,VALID,-0.0169808,VALID,20.0961,VALID,16,VALID,0.0145399,
2001-09-20, 02:17:00,VALID,917.214,VALID,0,VALID,95.6018,VALID,0.0169808,VALID,20.0923,VALID,16,VALID,0,
2001-09-20, 02:18:00,VALID,917.19,VALID,0,VALID,95.5738,VALID,0,VALID,20.0861,VALID,16,VALID,0,
2001-09-20, 02:19:00,VALID,917.172,VALID,0,VALID,95.4784,VALID,0,VALID,20.0859,VALID,17,VALID,0.445112,
2001-09-20, 02:20:00,VALID,917.155,VALID,0,VALID,95.3856,VALID,-0.0339617,VALID,20.0799,VALID,17,VALID,0.586338,
2001-09-20, 02:21:00,VALID,917.146,VALID,0,VALID,95.3551,VALID,-0.0339617,VALID,20.0702,VALID,18,VALID,0.552284,
2001-09-20, 02:22:00,VALID,917.137,VALID,0,VALID,95.3653,VALID,0,VALID,20.0568,VALID,26,VALID,0.577232,
2001-09-20, 02:23:00,VALID,917.136,VALID,0,VALID,95.35,VALID,-0.0169808,VALID,20.0506,VALID,27,VALID,0.697656,
2001-09-20, 02:24:00,VALID,917.141,VALID,0,VALID,95.3068,VALID,-0.0169808,VALID,20.0406,VALID,24,VALID,0.779297,
2001-09-20, 02:25:00,VALID,917.159,VALID,0,VALID,95.3093,VALID,-0.0339617,VALID,20.028,VALID,20,VALID,0.639453,
2001-09-20, 02:26:00,VALID,917.149,VALID,0,VALID,95.4708,VALID,-0.0339617,VALID,20.0218,VALID,19,VALID,0.604941,
2001-09-20, 02:27:00,VALID,917.144,VALID,0,VALID,95.4797,VALID,-0.0339617,VALID,20.0151,VALID,9,VALID,0.542101,
2001-09-20, 02:28:00,VALID,917.14,VALID,0,VALID,95.3831,VALID,-0.0169808,VALID,19.9857,VALID,20,VALID,0.787054,
2001-09-20, 02:29:00,VALID,917.145,VALID,0,VALID,95.378,VALID,-0.0169808,VALID,19.9763,VALID,16,VALID,0.556588,
2001-09-20, 02:30:00,VALID,917.159,VALID,0,VALID,95.3996,VALID,0,VALID,19.9696,VALID,15,VALID,0.270904,
2001-09-20, 02:31:00,VALID,917.153,VALID,0,VALID,95.5089,VALID,-0.0509425,VALID,19.9765,VALID,14,VALID,0.015024,
2001-09-20, 02:32:00,VALID,917.158,VALID,0,VALID,95.6234,VALID,-0.0169808,VALID,19.9793,VALID,14,VALID,0,
2001-09-20, 02:33:00,VALID,917.167,VALID,0,VALID,95.6323,VALID,0,VALID,19.9962,VALID,12,VALID,0.0571429,
2001-09-20, 02:34:00,VALID,917.178,VALID,0,VALID,95.4568,VALID,0,VALID,19.9795,VALID,6,VALID,0.135485,
2001-09-20, 02:35:00,VALID,917.19,VALID,0,VALID,95.3869,VALID,-0.0169808,VALID,19.9601,VALID,6,VALID,0.0548878,
2001-09-20, 02:36:00,VALID,917.193,VALID,0,VALID,95.514,VALID,0,VALID,19.9534,VALID,6,VALID,0,
2001-09-20, 02:37:00,VALID,917.185,VALID,0,VALID,95.6094,VALID,-0.0339617,VALID,19.9733,VALID,6,VALID,0,
2001-09-20, 02:38:00,VALID,917.185,VALID,0,VALID,95.715,VALID,0,VALID,19.9825,VALID,6,VALID,0,
2001-09-20, 02:39:00,VALID,917.196,VALID,0,VALID,95.8179,VALID,0,VALID,20.032,VALID,6,VALID,0,
2001-09-20, 02:40:00,VALID,917.188,VALID,0,VALID,95.7722,VALID,0,VALID,20.0511,VALID,6,VALID,0,
2001-09-20, 02:41:00,VALID,917.2,VALID,0,VALID,95.7111,VALID,0,VALID,20.0605,VALID,6,VALID,0,
2001-09-20, 02:42:00,VALID,917.206,VALID,0,VALID,95.7378,VALID,-0.0169808,VALID,20.07,VALID,6,VALID,0,
2001-09-20, 02:43:00,VALID,917.195,VALID,0,VALID,95.7213,VALID,0,VALID,20.0856,VALID,25,VALID,0.0693109,
2001-09-20, 02:44:00,VALID,917.196,VALID,0,VALID,95.5395,VALID,0,VALID,20.0888,VALID,47,VALID,0.147321,
2001-09-20, 02:45:00,VALID,917.191,VALID,0,VALID,95.6056,VALID,-0.0169808,VALID,20.0894,VALID,29,VALID,0.385617,
2001-09-20, 02:46:00,VALID,917.195,VALID,0,VALID,95.6259,VALID,-0.0169808,VALID,20.102,VALID,27,VALID,0.306538,
2001-09-20, 02:47:00,VALID,917.184,VALID,0,VALID,95.6005,VALID,-0.0169808,VALID,20.1154,VALID,27,VALID,0.341283,
2001-09-20, 02:48:00,VALID,917.175,VALID,0,VALID,95.6399,VALID,0,VALID,20.1214,VALID,24,VALID,0.609375,
2001-09-20, 02:49:00,VALID,917.159,VALID,0,VALID,95.5763,VALID,0,VALID,20.1279,VALID,24,VALID,0.644748,
2001-09-20, 02:50:00,VALID,917.149,VALID,0,VALID,95.5446,VALID,-0.0339617,VALID,20.1085,VALID,27,VALID,0.700597,
2001-09-20, 02:51:00,VALID,917.141,VALID,0,VALID,95.6094,VALID,0,VALID,20.109,VALID,26,VALID,0.740921,
2001-09-20, 02:52:00,VALID,917.13,VALID,0,VALID,95.6145,VALID,0,VALID,20.099,VALID,21,VALID,0.457732,
2001-09-20, 02:53:00,VALID,917.137,VALID,0,VALID,95.6539,VALID,-0.0169808,VALID,20.1058,VALID,21,VALID,0.205929,
2001-09-20, 02:54:00,VALID,917.133,VALID,0,VALID,95.5763,VALID,-0.0339617,VALID,20.1122,VALID,19,VALID,0.0995593,
2001-09-20, 02:55:00,VALID,917.131,VALID,0,VALID,95.4187,VALID,-0.0169808,VALID,20.0899,VALID,19,VALID,0,
2001-09-20, 02:56:00,VALID,917.118,VALID,0,VALID,95.4619,VALID,-0.0509425,VALID,20.0961,VALID,19,VALID,0,
2001-09-20, 02:57:00,VALID,917.106,VALID,0,VALID,95.4123,VALID,-0.0339617,VALID,20.0995,VALID,19,VALID,0,
2001-09-20, 02:58:00,VALID,917.092,VALID,0,VALID,95.0842,VALID,-0.0339617,VALID,20.0605,VALID,19,VALID,0,
2001-09-20, 02:59:00,VALID,917.079,VALID,0,VALID,95.0092,VALID,-0.0169808,VALID,20.022,VALID,19,VALID,0,
2001-09-20, 03:00:00,VALID,917.075,VALID,0,VALID,95.1453,VALID,-0.0169808,VALID,20.0151,VALID,19,VALID,0,
2001-09-20, 03:01:00,VALID,917.077,VALID,0,VALID,95.1885,VALID,0.0169808,VALID,20.0041,VALID,19,VALID,0,
2001-09-20, 03:02:00,VALID,917.088,VALID,0,VALID,95.2355,VALID,0.0679233,VALID,20.0073,VALID,19,VALID,0,
2001-09-20, 03:03:00,VALID,917.079,VALID,0,VALID,95.2788,VALID,0.0509425,VALID,20.0073,VALID,19,VALID,0,
2001-09-20, 03:04:00,VALID,917.07,VALID,0,VALID,95.2953,VALID,0.0509425,VALID,20.0208,VALID,19,VALID,0,
2001-09-20, 03:05:00,VALID,917.073,VALID,0,VALID,95.2355,VALID,0.0509425,VALID,20.0076,VALID,19,VALID,0,
2001-09-20, 03:06:00,VALID,917.083,VALID,0,VALID,95.2139,VALID,0.0339617,VALID,20.0076,VALID,19,VALID,0,
2001-09-20, 03:07:00,VALID,917.109,VALID,0,VALID,95.247,VALID,0.0679233,VALID,20.0076,VALID,19,VALID,0.130345,
2001-09-20, 03:08:00,VALID,917.112,VALID,0,VALID,95.2343,VALID,0.0679233,VALID,20.0073,VALID,19,VALID,0.452324,
2001-09-20, 03:09:00,VALID,917.108,VALID,0,VALID,95.2813,VALID,0.0679233,VALID,20.0011,VALID,26,VALID,0.505859,
2001-09-20, 03:10:00,VALID,917.106,VALID,0,VALID,95.3004,VALID,0.0339617,VALID,19.9909,VALID,28,VALID,0.630068,
2001-09-20, 03:11:00,VALID,917.114,VALID,0,VALID,95.4212,VALID,0.0849042,VALID,20.0078,VALID,19,VALID,0.324113,
2001-09-20, 03:12:00,VALID,917.112,VALID,0,VALID,95.35,VALID,0.0509425,VALID,19.9845,VALID,19,VALID,0.214193,
2001-09-20, 03:13:00,VALID,917.11,VALID,0,VALID,95.4581,VALID,0.0339617,VALID,19.9651,VALID,19,VALID,0.0558594,
2001-09-20, 03:14:00,VALID,917.093,VALID,0,VALID,95.4988,VALID,0.0679233,VALID,19.9815,VALID,19,VALID,0.125586,
2001-09-20, 03:15:00,VALID,917.076,VALID,0,VALID,95.4708,VALID,0.101885,VALID,19.9621,VALID,19,VALID,0.0204327,
2001-09-20, 03:16:00,VALID,917.062,VALID,0,VALID,95.4988,VALID,0.0169808,VALID,19.9465,VALID,19,VALID,0.041266,
2001-09-20, 03:17:00,VALID,917.056,VALID,0,VALID,95.5916,VALID,0,VALID,19.9442,VALID,19,VALID,0.0691964,
2001-09-20, 03:18:00,VALID,917.051,VALID,0,VALID,95.6094,VALID,-0.0169808,VALID,19.9507,VALID,19,VALID,0.134816,
2001-09-20, 03:19:00,VALID,917.036,VALID,0,VALID,95.617,VALID,0,VALID,19.9375,VALID,19,VALID,0.224301,
2001-09-20, 03:20:00,VALID,917.021,VALID,0,VALID,95.6285,VALID,-0.0169808,VALID,19.9311,VALID,19,VALID,0.127056,
2001-09-20, 03:21:00,VALID,917.026,VALID,0,VALID,95.7226,VALID,-0.0169808,VALID,19.9249,VALID,19,VALID,0.130208,
2001-09-20, 03:22:00,VALID,917.032,VALID,0,VALID,95.7912,VALID,-0.0339617,VALID,19.9345,VALID,19,VALID,0,
2001-09-20, 03:23:00,VALID,917.043,VALID,0,VALID,95.7836,VALID,-0.0679233,VALID,19.9249,VALID,19,VALID,0,
2001-09-20, 03:24:00,VALID,917.061,VALID,0,VALID,95.8116,VALID,-0.0509425,VALID,19.9343,VALID,19,VALID,0,
2001-09-20, 03:25:00,VALID,917.035,VALID,0,VALID,95.7938,VALID,-0.0169808,VALID,19.9378,VALID,19,VALID,0,
2001-09-20, 03:26:00,VALID,917.026,VALID,0,VALID,95.809,VALID,-0.0169808,VALID,19.9413,VALID,19,VALID,0,
2001-09-20, 03:27:00,VALID,917.033,VALID,0,VALID,95.8383,VALID,-0.0169808,VALID,19.9375,VALID,19,VALID,0,
2001-09-20, 03:28:00,VALID,917.041,VALID,0,VALID,95.8536,VALID,0,VALID,19.9408,VALID,9,VALID,0.01875,
2001-09-20, 03:29:00,VALID,917.04,VALID,0,VALID,95.912,VALID,0,VALID,19.9348,VALID,4,VALID,0,
2001-09-20, 03:30:00,VALID,917.052,VALID,0,VALID,95.9705,VALID,-0.0169808,VALID,19.938,VALID,4,VALID,0,
2001-09-20, 03:31:00,VALID,917.054,VALID,0,VALID,95.9756,VALID,0,VALID,19.9378,VALID,4,VALID,0,
2001-09-20, 03:32:00,VALID,917.088,VALID,0,VALID,95.9133,VALID,-0.0339617,VALID,19.9316,VALID,4,VALID,0,
2001-09-20, 03:33:00,VALID,917.096,VALID,0,VALID,95.8599,VALID,-0.0509425,VALID,19.9316,VALID,4,VALID,0.0130208,
2001-09-20, 03:34:00,VALID,917.113,VALID,0,VALID,95.9159,VALID,-0.0169808,VALID,19.9246,VALID,4,VALID,0,
2001-09-20, 03:35:00,VALID,917.146,VALID,0,VALID,95.9833,VALID,-0.0169808,VALID,19.9186,VALID,4,VALID,0,
2001-09-20, 03:36:00,VALID,917.155,VALID,0,VALID,95.9896,VALID,-0.0339617,VALID,19.9219,VALID,4,VALID,0.0147804,
2001-09-20, 03:37:00,VALID,917.179,VALID,0,VALID,95.8866,VALID,-0.0169808,VALID,19.9117,VALID,4,VALID,0.0296474,
2001-09-20, 03:38:00,VALID,917.187,VALID,0,VALID,95.8561,VALID,-0.0339617,VALID,19.8858,VALID,353,VALID,0.036258,